Year,Month,Day,Hour,Minute,Value (Times are PST for temperature in C)
2017,06,27,00,00,15.40
2017,06,27,00,01,15.40
2017,06,27,00,02,15.40
2017,06,27,00,03,15.40
2017,06,27,00,04,15.40
2017,06,27,00,05,15.40
2017,06,27,00,06,15.40
2017,06,27,00,07,15.40
2017,06,27,00,08,15.30
2017,06,27,00,09,15.30
2017,06,27,00,10,15.30
2017,06,27,00,11,15.30
2017,06,27,00,12,15.30
2017,06,27,00,13,15.30
2017,06,27,00,14,15.30
2017,06,27,00,15,15.20
2017,06,27,00,16,15.20
2017,06,27,00,17,15.30
2017,06,27,00,18,15.30
2017,06,27,00,19,15.30
2017,06,27,00,20,15.30
2017,06,27,00,21,15.30
2017,06,27,00,22,15.30
2017,06,27,00,23,15.30
2017,06,27,00,24,15.30
2017,06,27,00,25,15.30
2017,06,27,00,26,15.30
2017,06,27,00,27,15.30
2017,06,27,00,28,15.30
2017,06,27,00,29,15.30
2017,06,27,00,30,15.30
2017,06,27,00,31,15.30
2017,06,27,00,32,15.30
2017,06,27,00,33,15.20
2017,06,27,00,34,15.20
2017,06,27,00,35,15.20
2017,06,27,00,36,15.20
2017,06,27,00,37,15.10
2017,06,27,00,38,15.10
2017,06,27,00,39,15.10
2017,06,27,00,40,15.10
2017,06,27,00,41,15.00
2017,06,27,00,42,15.00
2017,06,27,00,43,15.00
2017,06,27,00,44,14.90
2017,06,27,00,45,14.90
2017,06,27,00,46,14.90
2017,06,27,00,47,14.90
2017,06,27,00,48,14.90
2017,06,27,00,49,14.80
2017,06,27,00,50,14.80
2017,06,27,00,51,14.80
2017,06,27,00,52,14.80
2017,06,27,00,53,14.80
2017,06,27,00,54,14.80
2017,06,27,00,55,14.80
2017,06,27,00,56,14.80
2017,06,27,00,57,14.80
2017,06,27,00,58,14.80
2017,06,27,00,59,14.80
2017,06,27,01,00,14.80
2017,06,27,01,01,14.70
2017,06,27,01,02,14.70
2017,06,27,01,03,14.70
2017,06,27,01,04,14.70
2017,06,27,01,05,14.70
2017,06,27,01,06,14.70
2017,06,27,01,07,14.60
2017,06,27,01,08,14.60
2017,06,27,01,09,14.60
2017,06,27,01,10,14.60
2017,06,27,01,11,14.60
2017,06,27,01,12,14.50
2017,06,27,01,13,14.50
2017,06,27,01,14,14.50
2017,06,27,01,15,14.50
2017,06,27,01,16,14.50
2017,06,27,01,17,14.40
2017,06,27,01,18,14.40
2017,06,27,01,19,14.40
2017,06,27,01,20,14.40
2017,06,27,01,21,14.40
2017,06,27,01,22,14.30
2017,06,27,01,23,14.30
2017,06,27,01,24,14.30
2017,06,27,01,25,14.20
2017,06,27,01,26,14.20
2017,06,27,01,27,14.20
2017,06,27,01,28,14.10
2017,06,27,01,29,14.10
2017,06,27,01,30,14.00
2017,06,27,01,31,14.00
2017,06,27,01,32,13.90
2017,06,27,01,33,13.90
2017,06,27,01,34,13.90
2017,06,27,01,35,13.80
2017,06,27,01,36,13.80
2017,06,27,01,37,13.80
2017,06,27,01,38,13.80
2017,06,27,01,39,13.80
2017,06,27,01,40,13.80
2017,06,27,01,41,13.80
2017,06,27,01,42,13.80
2017,06,27,01,43,13.80
2017,06,27,01,44,13.90
2017,06,27,01,45,13.90
2017,06,27,01,46,13.90
2017,06,27,01,47,13.90
2017,06,27,01,48,14.00
2017,06,27,01,49,14.00
2017,06,27,01,50,14.00
2017,06,27,01,51,14.00
2017,06,27,01,52,14.10
2017,06,27,01,53,14.10
2017,06,27,01,54,14.10
2017,06,27,01,55,14.10
2017,06,27,01,56,14.10
2017,06,27,01,57,14.10
2017,06,27,01,58,14.10
2017,06,27,01,59,14.10
2017,06,27,02,00,14.10
2017,06,27,02,01,14.10
2017,06,27,02,02,14.10
2017,06,27,02,03,14.10
2017,06,27,02,04,14.10
2017,06,27,02,05,14.10
2017,06,27,02,06,14.00
2017,06,27,02,07,14.00
2017,06,27,02,08,14.00
2017,06,27,02,09,13.90
2017,06,27,02,10,13.90
2017,06,27,02,11,13.90
2017,06,27,02,12,13.90
2017,06,27,02,13,13.90
2017,06,27,02,14,13.80
2017,06,27,02,15,13.80
2017,06,27,02,16,13.80
2017,06,27,02,17,13.80
2017,06,27,02,18,13.80
2017,06,27,02,19,13.80
2017,06,27,02,20,13.80
2017,06,27,02,21,13.80
2017,06,27,02,22,13.80
2017,06,27,02,23,13.80
2017,06,27,02,24,13.80
2017,06,27,02,25,13.80
2017,06,27,02,26,13.80
2017,06,27,02,27,13.80
2017,06,27,02,28,13.80
2017,06,27,02,29,13.80
2017,06,27,02,30,13.80
2017,06,27,02,31,13.80
2017,06,27,02,32,13.70
2017,06,27,02,33,13.70
2017,06,27,02,34,13.70
2017,06,27,02,35,13.70
2017,06,27,02,36,13.70
2017,06,27,02,37,13.60
2017,06,27,02,38,13.60
2017,06,27,02,39,13.60
2017,06,27,02,40,13.60
2017,06,27,02,41,13.60
2017,06,27,02,42,13.60
2017,06,27,02,43,13.50
2017,06,27,02,44,13.50
2017,06,27,02,45,13.50
2017,06,27,02,46,13.50
2017,06,27,02,47,13.50
2017,06,27,02,48,13.40
2017,06,27,02,49,13.40
2017,06,27,02,50,13.40
2017,06,27,02,51,13.40
2017,06,27,02,52,13.40
2017,06,27,02,53,13.40
2017,06,27,02,54,13.40
2017,06,27,02,55,13.40
2017,06,27,02,56,13.40
2017,06,27,02,57,13.40
2017,06,27,02,58,13.30
2017,06,27,02,59,13.30
2017,06,27,03,00,13.30
2017,06,27,03,01,13.30
2017,06,27,03,02,13.20
2017,06,27,03,03,13.20
2017,06,27,03,04,13.20
2017,06,27,03,05,13.20
2017,06,27,03,06,13.10
2017,06,27,03,07,13.10
2017,06,27,03,08,13.10
2017,06,27,03,09,13.10
2017,06,27,03,10,13.10
2017,06,27,03,11,13.10
2017,06,27,03,12,13.10
2017,06,27,03,13,13.10
2017,06,27,03,14,13.00
2017,06,27,03,15,13.00
2017,06,27,03,16,13.00
2017,06,27,03,17,13.00
2017,06,27,03,18,13.00
2017,06,27,03,19,13.00
2017,06,27,03,20,13.00
2017,06,27,03,21,13.00
2017,06,27,03,22,12.90
2017,06,27,03,23,12.90
2017,06,27,03,24,12.90
2017,06,27,03,25,12.80
2017,06,27,03,26,12.80
2017,06,27,03,27,12.80
2017,06,27,03,28,12.80
2017,06,27,03,29,12.70
2017,06,27,03,30,12.70
2017,06,27,03,31,12.70
2017,06,27,03,32,12.70
2017,06,27,03,33,12.60
2017,06,27,03,34,12.60
2017,06,27,03,35,12.60
2017,06,27,03,36,12.50
2017,06,27,03,37,12.50
2017,06,27,03,38,12.40
2017,06,27,03,39,12.40
2017,06,27,03,40,12.40
2017,06,27,03,41,12.40
2017,06,27,03,42,12.40
2017,06,27,03,43,12.40
2017,06,27,03,44,12.40
2017,06,27,03,45,12.40
2017,06,27,03,46,12.40
2017,06,27,03,47,12.40
2017,06,27,03,48,12.40
2017,06,27,03,49,12.40
2017,06,27,03,50,12.40
2017,06,27,03,51,12.40
2017,06,27,03,52,12.40
2017,06,27,03,53,12.40
2017,06,27,03,54,12.40
2017,06,27,03,55,12.40
2017,06,27,03,56,12.40
2017,06,27,03,57,12.40
2017,06,27,03,58,12.40
2017,06,27,03,59,12.40
2017,06,27,04,00,12.40
2017,06,27,04,01,12.30
2017,06,27,04,02,12.30
2017,06,27,04,03,12.30
2017,06,27,04,04,12.30
2017,06,27,04,05,12.30
2017,06,27,04,06,12.20
2017,06,27,04,07,12.20
2017,06,27,04,08,12.20
2017,06,27,04,09,12.20
2017,06,27,04,10,12.20
2017,06,27,04,11,12.20
2017,06,27,04,12,12.20
2017,06,27,04,13,12.20
2017,06,27,04,14,12.20
2017,06,27,04,15,12.10
2017,06,27,04,16,12.10
2017,06,27,04,17,12.10
2017,06,27,04,18,12.10
2017,06,27,04,19,12.10
2017,06,27,04,20,12.10
2017,06,27,04,21,12.10
2017,06,27,04,22,12.10
2017,06,27,04,23,12.10
2017,06,27,04,24,12.10
2017,06,27,04,25,12.10
2017,06,27,04,26,12.00
2017,06,27,04,27,12.00
2017,06,27,04,28,12.00
2017,06,27,04,29,12.00
2017,06,27,04,30,11.90
2017,06,27,04,31,11.90
2017,06,27,04,32,11.90
2017,06,27,04,33,11.90
2017,06,27,04,34,12.00
2017,06,27,04,35,12.00
2017,06,27,04,36,12.00
2017,06,27,04,37,12.00
2017,06,27,04,38,12.00
2017,06,27,04,39,12.00
2017,06,27,04,40,12.00
2017,06,27,04,41,11.90
2017,06,27,04,42,11.90
2017,06,27,04,43,11.90
2017,06,27,04,44,11.90
2017,06,27,04,45,11.90
2017,06,27,04,46,11.90
2017,06,27,04,47,11.90
2017,06,27,04,48,11.90
2017,06,27,04,49,11.80
2017,06,27,04,50,11.80
2017,06,27,04,51,11.80
2017,06,27,04,52,11.80
2017,06,27,04,53,11.80
2017,06,27,04,54,11.80
2017,06,27,04,55,11.80
2017,06,27,04,56,11.80
2017,06,27,04,57,11.80
2017,06,27,04,58,11.80
2017,06,27,04,59,11.80
2017,06,27,05,00,11.80
2017,06,27,05,01,11.80
2017,06,27,05,02,11.70
2017,06,27,05,03,11.70
2017,06,27,05,04,11.70
2017,06,27,05,05,11.70
2017,06,27,05,06,11.70
2017,06,27,05,07,11.70
2017,06,27,05,08,11.70
2017,06,27,05,09,11.60
2017,06,27,05,10,11.60
2017,06,27,05,11,11.60
2017,06,27,05,12,11.60
2017,06,27,05,13,11.60
2017,06,27,05,14,11.60
2017,06,27,05,15,11.50
2017,06,27,05,16,11.50
2017,06,27,05,17,11.50
2017,06,27,05,18,11.40
2017,06,27,05,19,11.40
2017,06,27,05,20,11.40
2017,06,27,05,21,11.40
2017,06,27,05,22,11.40
2017,06,27,05,23,11.40
2017,06,27,05,24,11.40
2017,06,27,05,25,11.40
2017,06,27,05,26,11.40
2017,06,27,05,27,11.40
2017,06,27,05,28,11.40
2017,06,27,05,29,11.40
2017,06,27,05,30,11.40
2017,06,27,05,31,11.40
2017,06,27,05,32,11.40
2017,06,27,05,33,11.40
2017,06,27,05,34,11.50
2017,06,27,05,35,11.50
2017,06,27,05,36,11.50
2017,06,27,05,37,11.60
2017,06,27,05,38,11.60
2017,06,27,05,39,11.60
2017,06,27,05,40,11.60
2017,06,27,05,41,11.60
2017,06,27,05,42,11.60
2017,06,27,05,43,11.60
2017,06,27,05,44,11.60
2017,06,27,05,45,11.60
2017,06,27,05,46,11.60
2017,06,27,05,47,11.60
2017,06,27,05,48,11.60
2017,06,27,05,49,11.60
2017,06,27,05,50,11.60
2017,06,27,05,51,11.60
2017,06,27,05,52,11.60
2017,06,27,05,53,11.60
2017,06,27,05,54,11.60
2017,06,27,05,55,11.60
2017,06,27,05,56,11.70
2017,06,27,05,57,11.70
2017,06,27,05,58,11.70
2017,06,27,05,59,11.80
2017,06,27,06,00,11.80
2017,06,27,06,01,11.80
2017,06,27,06,02,11.80
2017,06,27,06,03,11.80
2017,06,27,06,04,11.90
2017,06,27,06,05,11.90
2017,06,27,06,06,12.00
2017,06,27,06,07,12.00
2017,06,27,06,08,12.10
2017,06,27,06,09,12.20
2017,06,27,06,10,12.20
2017,06,27,06,11,12.30
2017,06,27,06,12,12.40
2017,06,27,06,13,12.50
2017,06,27,06,14,12.60
2017,06,27,06,15,12.60
2017,06,27,06,16,12.70
2017,06,27,06,17,12.70
2017,06,27,06,18,12.70
2017,06,27,06,19,12.70
2017,06,27,06,20,12.70
2017,06,27,06,21,12.80
2017,06,27,06,22,12.80
2017,06,27,06,23,12.80
2017,06,27,06,24,12.90
2017,06,27,06,25,13.00
2017,06,27,06,26,13.10
2017,06,27,06,27,13.10
2017,06,27,06,28,13.20
2017,06,27,06,29,13.20
2017,06,27,06,30,13.30
2017,06,27,06,31,13.40
2017,06,27,06,32,13.30
2017,06,27,06,33,13.30
2017,06,27,06,34,13.30
2017,06,27,06,35,13.30
2017,06,27,06,36,13.30
2017,06,27,06,37,13.20
2017,06,27,06,38,13.20
2017,06,27,06,39,13.20
2017,06,27,06,40,13.20
2017,06,27,06,41,13.20
2017,06,27,06,42,13.20
2017,06,27,06,43,13.20
2017,06,27,06,44,13.30
2017,06,27,06,45,13.30
2017,06,27,06,46,13.40
2017,06,27,06,47,13.40
2017,06,27,06,48,13.50
2017,06,27,06,49,13.50
2017,06,27,06,50,13.40
2017,06,27,06,51,13.40
2017,06,27,06,52,13.40
2017,06,27,06,53,13.40
2017,06,27,06,54,13.50
2017,06,27,06,55,13.50
2017,06,27,06,56,13.50
2017,06,27,06,57,13.60
2017,06,27,06,58,13.70
2017,06,27,06,59,13.70
2017,06,27,07,00,13.80
2017,06,27,07,01,13.90
2017,06,27,07,02,13.90
2017,06,27,07,03,14.00
2017,06,27,07,04,14.00
2017,06,27,07,05,14.10
2017,06,27,07,06,14.20
2017,06,27,07,07,14.20
2017,06,27,07,08,14.30
2017,06,27,07,09,14.30
2017,06,27,07,10,14.30
2017,06,27,07,11,14.30
2017,06,27,07,12,14.30
2017,06,27,07,13,14.30
2017,06,27,07,14,14.40
2017,06,27,07,15,14.40
2017,06,27,07,16,14.40
2017,06,27,07,17,14.40
2017,06,27,07,18,14.50
2017,06,27,07,19,14.50
2017,06,27,07,20,14.50
2017,06,27,07,21,14.60
2017,06,27,07,22,14.60
2017,06,27,07,23,14.60
2017,06,27,07,24,14.70
2017,06,27,07,25,14.70
2017,06,27,07,26,14.70
2017,06,27,07,27,14.70
2017,06,27,07,28,14.70
2017,06,27,07,29,14.70
2017,06,27,07,30,14.70
2017,06,27,07,31,14.70
2017,06,27,07,32,14.70
2017,06,27,07,33,14.70
2017,06,27,07,34,14.80
2017,06,27,07,35,14.80
2017,06,27,07,36,14.90
2017,06,27,07,37,14.90
2017,06,27,07,38,14.90
2017,06,27,07,39,14.90
2017,06,27,07,40,14.80
2017,06,27,07,41,14.80
2017,06,27,07,42,14.80
2017,06,27,07,43,14.80
2017,06,27,07,44,14.80
2017,06,27,07,45,14.80
2017,06,27,07,46,14.80
2017,06,27,07,47,14.80
2017,06,27,07,48,14.90
2017,06,27,07,49,14.90
2017,06,27,07,50,14.90
2017,06,27,07,51,14.80
2017,06,27,07,52,14.80
2017,06,27,07,53,14.80
2017,06,27,07,54,14.70
2017,06,27,07,55,14.70
2017,06,27,07,56,14.70
2017,06,27,07,57,14.70
2017,06,27,07,58,14.70
2017,06,27,07,59,14.70
2017,06,27,08,00,14.80
2017,06,27,08,01,14.90
2017,06,27,08,02,14.90
2017,06,27,08,03,15.00
2017,06,27,08,04,15.00
2017,06,27,08,05,15.00
2017,06,27,08,06,15.00
2017,06,27,08,07,14.90
2017,06,27,08,08,15.00
2017,06,27,08,09,15.10
2017,06,27,08,10,15.10
2017,06,27,08,11,15.20
2017,06,27,08,12,15.30
2017,06,27,08,13,15.30
2017,06,27,08,14,15.40
2017,06,27,08,15,15.50
2017,06,27,08,16,15.60
2017,06,27,08,17,15.70
2017,06,27,08,18,15.70
2017,06,27,08,19,15.80
2017,06,27,08,20,15.80
2017,06,27,08,21,15.90
2017,06,27,08,22,15.90
2017,06,27,08,23,16.00
2017,06,27,08,24,16.10
2017,06,27,08,25,16.10
2017,06,27,08,26,16.20
2017,06,27,08,27,16.20
2017,06,27,08,28,16.20
2017,06,27,08,29,16.20
2017,06,27,08,30,16.20
2017,06,27,08,31,16.10
2017,06,27,08,32,16.10
2017,06,27,08,33,16.00
2017,06,27,08,34,16.00
2017,06,27,08,35,16.00
2017,06,27,08,36,16.00
2017,06,27,08,37,16.00
2017,06,27,08,38,16.00
2017,06,27,08,39,16.10
2017,06,27,08,40,16.10
2017,06,27,08,41,16.10
2017,06,27,08,42,16.20
2017,06,27,08,43,16.30
2017,06,27,08,44,16.30
2017,06,27,08,45,16.30
2017,06,27,08,46,16.30
2017,06,27,08,47,16.30
2017,06,27,08,48,16.30
2017,06,27,08,49,16.30
2017,06,27,08,50,16.40
2017,06,27,08,51,16.50
2017,06,27,08,52,16.70
2017,06,27,08,53,16.80
2017,06,27,08,54,16.90
2017,06,27,08,55,16.90
2017,06,27,08,56,17.00
2017,06,27,08,57,17.00
2017,06,27,08,58,17.00
2017,06,27,08,59,16.90
2017,06,27,09,00,16.70
2017,06,27,09,01,16.70
2017,06,27,09,02,16.60
2017,06,27,09,03,16.50
2017,06,27,09,04,16.50
2017,06,27,09,05,16.40
2017,06,27,09,06,16.50
2017,06,27,09,07,16.50
2017,06,27,09,08,16.70
2017,06,27,09,09,16.70
2017,06,27,09,10,16.80
2017,06,27,09,11,16.80
2017,06,27,09,12,16.90
2017,06,27,09,13,17.00
2017,06,27,09,14,17.00
2017,06,27,09,15,17.10
2017,06,27,09,16,17.10
2017,06,27,09,17,17.10
2017,06,27,09,18,17.10
2017,06,27,09,19,17.10
2017,06,27,09,20,17.10
2017,06,27,09,21,17.20
2017,06,27,09,22,17.20
2017,06,27,09,23,17.20
2017,06,27,09,24,17.20
2017,06,27,09,25,17.10
2017,06,27,09,26,17.00
2017,06,27,09,27,16.90
2017,06,27,09,28,16.90
2017,06,27,09,29,16.80
2017,06,27,09,30,16.80
2017,06,27,09,31,16.80
2017,06,27,09,32,16.80
2017,06,27,09,33,16.80
2017,06,27,09,34,16.80
2017,06,27,09,35,16.70
2017,06,27,09,36,16.60
2017,06,27,09,37,16.60
2017,06,27,09,38,16.50
2017,06,27,09,39,16.50
2017,06,27,09,40,16.50
2017,06,27,09,41,16.50
2017,06,27,09,42,16.50
2017,06,27,09,43,16.50
2017,06,27,09,44,16.60
2017,06,27,09,45,16.70
2017,06,27,09,46,16.70
2017,06,27,09,47,16.70
2017,06,27,09,48,16.70
2017,06,27,09,49,16.70
2017,06,27,09,50,16.70
2017,06,27,09,51,16.70
2017,06,27,09,52,16.70
2017,06,27,09,53,16.70
2017,06,27,09,54,16.70
2017,06,27,09,55,16.70
2017,06,27,09,56,16.70
2017,06,27,09,57,16.70
2017,06,27,09,58,16.80
2017,06,27,09,59,16.90
2017,06,27,10,00,16.90
2017,06,27,10,01,16.90
2017,06,27,10,02,16.80
2017,06,27,10,03,16.70
2017,06,27,10,04,16.60
2017,06,27,10,05,16.50
2017,06,27,10,06,16.30
2017,06,27,10,07,16.20
2017,06,27,10,08,16.20
2017,06,27,10,09,16.20
2017,06,27,10,10,16.30
2017,06,27,10,11,16.40
2017,06,27,10,12,16.40
2017,06,27,10,13,16.50
2017,06,27,10,14,16.60
2017,06,27,10,15,16.60
2017,06,27,10,16,16.60
2017,06,27,10,17,16.50
2017,06,27,10,18,16.40
2017,06,27,10,19,16.40
2017,06,27,10,20,16.40
2017,06,27,10,21,16.40
2017,06,27,10,22,16.40
2017,06,27,10,23,16.40
2017,06,27,10,24,16.50
2017,06,27,10,25,16.50
2017,06,27,10,26,16.50
2017,06,27,10,27,16.50
2017,06,27,10,28,16.50
2017,06,27,10,29,16.50
2017,06,27,10,30,16.60
2017,06,27,10,31,16.70
2017,06,27,10,32,16.70
2017,06,27,10,33,16.80
2017,06,27,10,34,17.00
2017,06,27,10,35,17.00
2017,06,27,10,36,17.00
2017,06,27,10,37,17.00
2017,06,27,10,38,17.00
2017,06,27,10,39,16.90
2017,06,27,10,40,16.90
2017,06,27,10,41,16.90
2017,06,27,10,42,16.80
2017,06,27,10,43,16.90
2017,06,27,10,44,16.90
2017,06,27,10,45,17.00
2017,06,27,10,46,17.00
2017,06,27,10,47,16.90
2017,06,27,10,48,16.90
2017,06,27,10,49,17.00
2017,06,27,10,50,17.10
2017,06,27,10,51,17.20
2017,06,27,10,52,17.20
2017,06,27,10,53,17.10
2017,06,27,10,54,17.10
2017,06,27,10,55,17.10
2017,06,27,10,56,17.10
2017,06,27,10,57,17.10
2017,06,27,10,58,17.10
2017,06,27,10,59,17.10
2017,06,27,11,00,17.10
2017,06,27,11,01,17.10
2017,06,27,11,02,17.10
2017,06,27,11,03,17.10
2017,06,27,11,04,17.10
2017,06,27,11,05,17.10
2017,06,27,11,06,17.10
2017,06,27,11,07,17.20
2017,06,27,11,08,17.20
2017,06,27,11,09,17.30
2017,06,27,11,10,17.30
2017,06,27,11,11,17.30
2017,06,27,11,12,17.40
2017,06,27,11,13,17.50
2017,06,27,11,14,17.50
2017,06,27,11,15,17.40
2017,06,27,11,16,17.40
2017,06,27,11,17,17.40
2017,06,27,11,18,17.40
2017,06,27,11,19,17.50
2017,06,27,11,20,17.50
2017,06,27,11,21,17.50
2017,06,27,11,22,17.50
2017,06,27,11,23,17.60
2017,06,27,11,24,17.60
2017,06,27,11,25,17.60
2017,06,27,11,26,17.60
2017,06,27,11,27,17.60
2017,06,27,11,28,17.60
2017,06,27,11,29,17.60
2017,06,27,11,30,17.60
2017,06,27,11,31,17.60
2017,06,27,11,32,17.60
2017,06,27,11,33,17.60
2017,06,27,11,34,17.50
2017,06,27,11,35,17.40
2017,06,27,11,36,17.50
2017,06,27,11,37,17.50
2017,06,27,11,38,17.50
2017,06,27,11,39,17.50
2017,06,27,11,40,17.50
2017,06,27,11,41,17.40
2017,06,27,11,42,17.40
2017,06,27,11,43,17.30
2017,06,27,11,44,17.30
2017,06,27,11,45,17.30
2017,06,27,11,46,17.30
2017,06,27,11,47,17.30
2017,06,27,11,48,17.30
2017,06,27,11,49,17.30
2017,06,27,11,50,17.20
2017,06,27,11,51,17.20
2017,06,27,11,52,17.30
2017,06,27,11,53,17.30
2017,06,27,11,54,17.30
2017,06,27,11,55,17.40
2017,06,27,11,56,17.50
2017,06,27,11,57,17.60
2017,06,27,11,58,17.60
2017,06,27,11,59,17.60
2017,06,27,12,00,17.60
2017,06,27,12,01,17.60
2017,06,27,12,02,17.60
2017,06,27,12,03,17.60
2017,06,27,12,04,17.70
2017,06,27,12,05,17.70
2017,06,27,12,06,17.80
2017,06,27,12,07,17.80
2017,06,27,12,08,17.70
2017,06,27,12,09,17.80
2017,06,27,12,10,17.90
2017,06,27,12,11,17.90
2017,06,27,12,12,17.90
2017,06,27,12,13,17.80
2017,06,27,12,14,17.80
2017,06,27,12,15,17.80
2017,06,27,12,16,17.80
2017,06,27,12,17,17.90
2017,06,27,12,18,17.90
2017,06,27,12,19,18.00
2017,06,27,12,20,18.10
2017,06,27,12,21,18.10
2017,06,27,12,22,18.10
2017,06,27,12,23,18.10
2017,06,27,12,24,18.20
2017,06,27,12,25,18.20
2017,06,27,12,26,18.30
2017,06,27,12,27,18.40
2017,06,27,12,28,18.50
2017,06,27,12,29,18.40
2017,06,27,12,30,18.30
2017,06,27,12,31,18.30
2017,06,27,12,32,18.30
2017,06,27,12,33,18.30
2017,06,27,12,34,18.30
2017,06,27,12,35,18.40
2017,06,27,12,36,18.40
2017,06,27,12,37,18.40
2017,06,27,12,38,18.30
2017,06,27,12,39,18.20
2017,06,27,12,40,18.10
2017,06,27,12,41,18.10
2017,06,27,12,42,18.20
2017,06,27,12,43,18.20
2017,06,27,12,44,18.20
2017,06,27,12,45,18.20
2017,06,27,12,46,18.20
2017,06,27,12,47,18.30
2017,06,27,12,48,18.30
2017,06,27,12,49,18.30
2017,06,27,12,50,18.30
2017,06,27,12,51,18.30
2017,06,27,12,52,18.30
2017,06,27,12,53,18.30
2017,06,27,12,54,18.40
2017,06,27,12,55,18.30
2017,06,27,12,56,18.30
2017,06,27,12,57,18.30
2017,06,27,12,58,18.30
2017,06,27,12,59,18.40
2017,06,27,13,00,18.50
2017,06,27,13,01,18.50
2017,06,27,13,02,18.50
2017,06,27,13,03,18.50
2017,06,27,13,04,18.60
2017,06,27,13,05,18.70
2017,06,27,13,06,18.70
2017,06,27,13,07,18.70
2017,06,27,13,08,18.80
2017,06,27,13,09,18.80
2017,06,27,13,10,18.90
2017,06,27,13,11,18.90
2017,06,27,13,12,19.00
2017,06,27,13,13,19.00
2017,06,27,13,14,19.10
2017,06,27,13,15,19.20
2017,06,27,13,16,19.20
2017,06,27,13,17,19.10
2017,06,27,13,18,19.10
2017,06,27,13,19,19.00
2017,06,27,13,20,18.90
2017,06,27,13,21,18.90
2017,06,27,13,22,19.00
2017,06,27,13,23,19.00
2017,06,27,13,24,19.00
2017,06,27,13,25,19.10
2017,06,27,13,26,19.20
2017,06,27,13,27,19.30
2017,06,27,13,28,19.40
2017,06,27,13,29,19.40
2017,06,27,13,30,19.50
2017,06,27,13,31,19.60
2017,06,27,13,32,19.60
2017,06,27,13,33,19.60
2017,06,27,13,34,19.50
2017,06,27,13,35,19.50
2017,06,27,13,36,19.60
2017,06,27,13,37,19.60
2017,06,27,13,38,19.60
2017,06,27,13,39,19.60
2017,06,27,13,40,19.60
2017,06,27,13,41,19.60
2017,06,27,13,42,19.60
2017,06,27,13,43,19.70
2017,06,27,13,44,19.70
2017,06,27,13,45,19.70
2017,06,27,13,46,19.70
2017,06,27,13,47,19.70
2017,06,27,13,48,19.70
2017,06,27,13,49,19.70
2017,06,27,13,50,19.70
2017,06,27,13,51,19.70
2017,06,27,13,52,19.80
2017,06,27,13,53,19.80
2017,06,27,13,54,19.80
2017,06,27,13,55,19.90
2017,06,27,13,56,19.90
2017,06,27,13,57,19.90
2017,06,27,13,58,19.90
2017,06,27,13,59,19.90
2017,06,27,14,00,19.80
2017,06,27,14,01,19.80
2017,06,27,14,02,19.90
2017,06,27,14,03,19.90
2017,06,27,14,04,19.80
2017,06,27,14,05,19.90
2017,06,27,14,06,20.00
2017,06,27,14,07,20.00
2017,06,27,14,08,20.10
2017,06,27,14,09,20.10
2017,06,27,14,10,20.20
2017,06,27,14,11,20.20
2017,06,27,14,12,20.20
2017,06,27,14,13,20.20
2017,06,27,14,14,20.20
2017,06,27,14,15,20.20
2017,06,27,14,16,20.20
2017,06,27,14,17,20.20
2017,06,27,14,18,20.20
2017,06,27,14,19,20.20
2017,06,27,14,20,20.30
2017,06,27,14,21,20.30
2017,06,27,14,22,20.30
2017,06,27,14,23,20.30
2017,06,27,14,24,20.40
2017,06,27,14,25,20.50
2017,06,27,14,26,20.60
2017,06,27,14,27,20.70
2017,06,27,14,28,20.70
2017,06,27,14,29,20.70
2017,06,27,14,30,20.80
2017,06,27,14,31,20.80
2017,06,27,14,32,20.60
2017,06,27,14,33,20.60
2017,06,27,14,34,20.50
2017,06,27,14,35,20.40
2017,06,27,14,36,20.30
2017,06,27,14,37,20.40
2017,06,27,14,38,20.40
2017,06,27,14,39,20.50
2017,06,27,14,40,20.40
2017,06,27,14,41,20.40
2017,06,27,14,42,20.40
2017,06,27,14,43,20.50
2017,06,27,14,44,20.40
2017,06,27,14,45,20.30
2017,06,27,14,46,20.20
2017,06,27,14,47,20.20
2017,06,27,14,48,20.20
2017,06,27,14,49,20.20
2017,06,27,14,50,20.30
2017,06,27,14,51,20.40
2017,06,27,14,52,20.50
2017,06,27,14,53,20.50
2017,06,27,14,54,20.50
2017,06,27,14,55,20.50
2017,06,27,14,56,20.40
2017,06,27,14,57,20.40
2017,06,27,14,58,20.40
2017,06,27,14,59,20.40
2017,06,27,15,00,20.40
2017,06,27,15,01,20.40
2017,06,27,15,02,20.40
2017,06,27,15,03,20.40
2017,06,27,15,04,20.50
2017,06,27,15,05,20.60
2017,06,27,15,06,20.70
2017,06,27,15,07,20.70
2017,06,27,15,08,20.70
2017,06,27,15,09,20.80
2017,06,27,15,10,20.80
2017,06,27,15,11,20.90
2017,06,27,15,12,20.90
2017,06,27,15,13,20.90
2017,06,27,15,14,20.80
2017,06,27,15,15,20.80
2017,06,27,15,16,20.80
2017,06,27,15,17,20.80
2017,06,27,15,18,20.70
2017,06,27,15,19,20.70
2017,06,27,15,20,20.80
2017,06,27,15,21,20.80
2017,06,27,15,22,20.90
2017,06,27,15,23,20.80
2017,06,27,15,24,20.80
2017,06,27,15,25,20.80
2017,06,27,15,26,20.80
2017,06,27,15,27,20.90
2017,06,27,15,28,21.00
2017,06,27,15,29,21.00
2017,06,27,15,30,21.00
2017,06,27,15,31,21.00
2017,06,27,15,32,20.90
2017,06,27,15,33,20.80
2017,06,27,15,34,20.80
2017,06,27,15,35,20.80
2017,06,27,15,36,20.80
2017,06,27,15,37,20.80
2017,06,27,15,38,20.70
2017,06,27,15,39,20.70
2017,06,27,15,40,20.70
2017,06,27,15,41,20.70
2017,06,27,15,42,20.60
2017,06,27,15,43,20.70
2017,06,27,15,44,20.70
2017,06,27,15,45,20.80
2017,06,27,15,46,21.00
2017,06,27,15,47,21.10
2017,06,27,15,48,21.10
2017,06,27,15,49,21.00
2017,06,27,15,50,21.00
2017,06,27,15,51,20.90
2017,06,27,15,52,20.90
2017,06,27,15,53,20.90
2017,06,27,15,54,20.90
2017,06,27,15,55,20.80
2017,06,27,15,56,20.90
2017,06,27,15,57,20.90
2017,06,27,15,58,21.00
2017,06,27,15,59,21.00
2017,06,27,16,00,21.10
2017,06,27,16,01,21.10
2017,06,27,16,02,21.10
2017,06,27,16,03,21.10
2017,06,27,16,04,21.10
2017,06,27,16,05,21.10
2017,06,27,16,06,21.10
2017,06,27,16,07,21.10
2017,06,27,16,08,21.10
2017,06,27,16,09,21.00
2017,06,27,16,10,21.00
2017,06,27,16,11,21.00
2017,06,27,16,12,21.10
2017,06,27,16,13,21.10
2017,06,27,16,14,21.10
2017,06,27,16,15,21.20
2017,06,27,16,16,21.20
2017,06,27,16,17,21.10
2017,06,27,16,18,21.10
2017,06,27,16,19,21.10
2017,06,27,16,20,21.10
2017,06,27,16,21,21.10
2017,06,27,16,22,21.10
2017,06,27,16,23,21.10
2017,06,27,16,24,21.10
2017,06,27,16,25,21.10
2017,06,27,16,26,21.10
2017,06,27,16,27,21.10
2017,06,27,16,28,21.00
2017,06,27,16,29,21.00
2017,06,27,16,30,20.90
2017,06,27,16,31,21.00
2017,06,27,16,32,21.00
2017,06,27,16,33,20.90
2017,06,27,16,34,20.90
2017,06,27,16,35,20.90
2017,06,27,16,36,20.90
2017,06,27,16,37,20.90
2017,06,27,16,38,20.90
2017,06,27,16,39,20.90
2017,06,27,16,40,20.90
2017,06,27,16,41,21.00
2017,06,27,16,42,21.00
2017,06,27,16,43,21.00
2017,06,27,16,44,21.10
2017,06,27,16,45,21.10
2017,06,27,16,46,21.10
2017,06,27,16,47,21.10
2017,06,27,16,48,21.10
2017,06,27,16,49,21.10
2017,06,27,16,50,21.10
2017,06,27,16,51,21.20
2017,06,27,16,52,21.20
2017,06,27,16,53,21.20
2017,06,27,16,54,21.30
2017,06,27,16,55,21.30
2017,06,27,16,56,21.20
2017,06,27,16,57,21.10
2017,06,27,16,58,21.10
2017,06,27,16,59,21.10
2017,06,27,17,00,21.10
2017,06,27,17,01,21.10
2017,06,27,17,02,21.00
2017,06,27,17,03,21.10
2017,06,27,17,04,21.10
2017,06,27,17,05,21.10
2017,06,27,17,06,21.10
2017,06,27,17,07,21.10
2017,06,27,17,08,21.10
2017,06,27,17,09,21.10
2017,06,27,17,10,21.10
2017,06,27,17,11,20.90
2017,06,27,17,12,20.80
2017,06,27,17,13,20.80
2017,06,27,17,14,20.70
2017,06,27,17,15,20.70
2017,06,27,17,16,20.70
2017,06,27,17,17,20.70
2017,06,27,17,18,20.70
2017,06,27,17,19,20.70